GW2584 Weather Reports


Display with metric or nautical units.
time (UTC)temp
F
wind
direction
speed
MPH
gust
MPH
rain 1hr
in
rain 24hr
in
rain mn
in
humidity
%
barometer
mb
20260509114600 52 99 1.0 3.0 0.00 0.00 0.00 37 1015.6
20260509113100 52 0 1.0 3.0 0.00 0.00 0.00 38 1015.4
20260509111559 52 30 2.0 7.0 0.00 0.00 0.00 38 1015.3
20260509110056 52 0 0.0 3.0 0.00 0.00 0.00 38 1015.1
20260509104603 53 120 1.0 5.0 0.00 0.00 0.00 37 1015.3
20260509103106 54 254 0.0 13.0 0.00 0.00 0.00 36 1014.9
20260509101620 54 198 6.0 16.0 0.00 0.00 0.00 35 1014.7
20260509100059 54 203 4.0 10.0 0.00 0.00 0.00 35 1015.1
20260509094602 53 200 0.0 4.0 0.00 0.00 0.00 35 1015.2
20260509093059 54 200 1.0 10.0 0.00 0.00 0.00 35 1015.3
20260509091558 54 0 1.0 8.0 0.00 0.00 0.00 36 1015.1
20260509090105 54 185 3.0 7.0 0.00 0.00 0.00 35 1015.0
20260509084604 53 169 1.0 10.0 0.00 0.00 0.00 36 1014.9
20260509083109 53 266 2.0 5.0 0.00 0.00 0.00 37 1015.0
20260509081557 55 0 1.0 5.0 0.00 0.00 0.00 34 1015.1
20260509080059 55 227 4.0 7.0 0.00 0.00 0.00 33 1015.2
20260509074612 54 229 2.0 5.0 0.00 0.00 0.00 35 1015.3
20260509073107 54 0 0.0 6.0 0.00 0.00 0.00 35 1015.3
20260509071603 54 217 1.0 7.0 0.00 0.00 0.00 35 1015.5
20260509070106 54 221 1.0 8.0 0.00 0.00 0.00 37 1015.5
20260509064601 53 235 1.0 4.0 0.00 0.00 0.00 36 1015.5
20260509063102 52 250 0.0 3.0 0.00 0.00 0.00 43 1015.7
20260509061556 52 0 0.0 3.0 0.00 0.00 0.00 41 1015.6
20260509060112 51 221 0.0 5.0 0.00 0.00 0.00 49 1015.8
20260509054557 52 0 0.0 4.0 0.00 0.00 0.00 51 1016.0
20260509053116 52 249 4.0 7.0 0.00 0.00 0.00 51 1016.1
20260509051609 50 241 0.0 3.0 0.00 0.00 0.00 60 1016.4
20260509044559 50 0 1.0 4.0 0.00 0.00 0.00 59 1016.7
20260509043100 51 0 0.0 4.0 0.00 0.00 0.00 59 1017.0
20260509041556 51 0 0.0 3.0 0.00 0.00 0.00 58 1017.1
20260509040108 52 265 1.0 2.0 0.00 0.00 0.00 56 1017.4
20260509034555 53 239 2.0 5.0 0.00 0.00 0.00 55 1017.4
20260509033128 55 0 0.0 5.0 0.00 0.00 0.00 51 1017.5
20260509031555 54 205 1.0 4.0 0.00 0.00 0.00 51 1017.6
20260509030059 54 186 3.0 5.0 0.00 0.00 0.00 51 1017.5
20260509024606 54 202 1.0 3.0 0.00 0.00 0.00 51 1017.4
20260509023054 54 203 2.0 4.0 0.00 0.00 0.00 52 1017.3
20260509021557 54 0 0.0 1.0 0.00 0.00 0.00 51 1017.2
20260509020110 55 0 0.0 1.0 0.00 0.00 0.00 50 1017.1
20260509014557 56 224 0.0 1.0 0.00 0.00 0.00 49 1016.9
20260509013100 57 0 1.0 4.0 0.00 0.00 0.00 48 1016.9
20260509011604 57 123 1.0 6.0 0.00 0.00 0.00 47 1016.8
20260509010100 57 109 1.0 5.0 0.00 0.00 0.00 47 1016.7
20260509004555 58 86 2.0 9.0 0.00 0.00 0.00 46 1016.5
20260509003059 59 48 3.0 6.0 0.00 0.00 0.00 45 1016.6
20260509001556 59 45 0.0 8.0 0.00 0.00 0.00 45 1016.6
20260509000055 59 58 2.0 9.0 0.00 0.00 0.00 45 1016.6
20260508234603 60 0 0.0 7.0 0.00 0.00 0.00 44 1016.6
20260508233104 60 330 2.0 8.0 0.00 0.00 0.00 44 1016.4
20260508231600 61 55 2.0 6.0 0.00 0.00 0.00 44 1016.5
20260508230057 61 34 2.0 5.0 0.00 0.00 0.00 43 1016.6
20260508224556 61 92 5.0 12.0 0.00 0.00 0.00 43 1016.5
20260508223055 61 4 1.0 7.0 0.00 0.00 0.00 44 1016.5
20260508221558 60 284 4.0 9.0 0.00 0.00 0.00 45 1016.6
20260508220056 60 0 3.0 11.0 0.00 0.00 0.00 45 1016.7
20260508214556 60 35 3.0 12.0 0.00 0.00 0.00 46 1016.8
20260508213058 60 295 2.0 11.0 0.00 0.00 0.00 45 1016.9
20260508211557 60 112 4.0 15.0 0.00 0.00 0.00 45 1016.9
20260508210100 60 32 4.0 10.0 0.00 0.00 0.00 48 1017.1
20260508204558 60 96 5.0 9.0 0.00 0.00 0.00 49 1017.1
20260508203101 60 16 4.0 11.0 0.00 0.00 0.00 48 1017.2
20260508201558 59 4 6.0 12.0 0.00 0.00 0.00 50 1017.2
20260508200113 58 51 7.0 14.0 0.00 0.00 0.00 50 1017.4
20260508194607 58 43 4.0 14.0 0.00 0.00 0.00 52 1017.6
20260508193119 58 104 4.0 10.0 0.00 0.00 0.00 50 1017.6
20260508191607 57 22 4.0 10.0 0.00 0.00 0.00 52 1017.7
20260508190114 55 2 4.0 13.0 0.00 0.00 0.00 54 1017.8
20260508184601 56 93 3.0 9.0 0.00 0.00 0.00 54 1018.0
20260508183100 56 15 5.0 12.0 0.00 0.00 0.00 53 1018.1
20260508181603 55 99 4.0 9.0 0.00 0.00 0.00 57 1018.2
20260508180106 55 18 2.0 11.0 0.00 0.00 0.00 54 1018.5
20260508174556 54 67 4.0 9.0 0.00 0.00 0.00 56 1018.5
20260508173056 53 344 2.0 9.0 0.00 0.00 0.00 56 1018.6
20260508171557 54 113 2.0 9.0 0.00 0.00 0.00 58 1018.6
20260508170100 55 153 2.0 9.0 0.00 0.00 0.00 58 1018.6
20260508164554 54 14 4.0 8.0 0.00 0.03 0.00 59 1018.6
20260508163106 54 39 3.0 8.0 0.00 0.03 0.00 57 1018.4
20260508161559 54 31 2.0 8.0 0.00 0.03 0.00 55 1018.4
20260508160056 54 224 1.0 9.0 0.00 0.03 0.00 52 1018.3
20260508154559 54 6 1.0 8.0 0.00 0.11 0.00 60 1018.4
20260508153107 54 12 3.0 7.0 0.00 0.11 0.00 56 1018.3
20260508151557 57 13 2.0 7.0 0.00 0.11 0.00 40 1018.1
20260508150056 56 34 1.0 4.0 0.00 0.11 0.00 47 1018.1
20260508144557 53 154 0.0 2.0 0.00 0.27 0.00 55 1018.1
20260508143116 50 187 1.0 3.0 0.00 0.27 0.00 62 1018.5
20260508141605 49 267 1.0 3.0 0.00 0.27 0.00 65 1018.7
20260508140115 49 0 0.0 1.0 0.00 0.27 0.00 67 1018.7
20260508134556 48 271 1.0 4.0 0.00 0.27 0.00 69 1018.9
20260508133102 47 273 0.0 3.0 0.00 0.27 0.00 71 1018.8
20260508131556 46 0 0.0 5.0 0.00 0.27 0.00 74 1018.9
20260508130057 43 214 1.0 8.0 0.00 0.27 0.00 83 1019.0
20260508124558 41 181 0.0 2.0 0.00 0.27 0.00 88 1019.2
20260508123054 39 0 0.0 1.0 0.00 0.27 0.00 87 1019.2
20260508121554 39 0 0.0 0.0 0.00 0.27 0.00 85 1019.2
20260508120112 39 0 0.0 1.0 0.00 0.27 0.00 85 1018.5